971  
ASUS46 KPDT 151925  
RWRPDT  
PENDLETON REGIONAL WEATHER ROUNDUP  
NATIONAL WEATHER SERVICE PENDLETON OREGON  
1200 PM PDT MON OCT 15 2018  
 
NOTE: FAIR INDICATES FEW OR NO CLOUDS BELOW 12,000 FEET WITH NO  
SIGNIFICANT WEATHER AND/OR S TO VISIBILITY
.  
 
# INDICATES UNOFFICIAL STATION AND DATA  
 
WAZ520-152010-  
EAST SLOPES OF WASHINGTON CASCADES  
 
CITY SKY/WX TMP DP RH WIND PRES REMARKS
 
#BULLFROG N/A 50 30 46 E1 N/A  
#CLE ELUM HS N/A 53 31 43 CALM 30.36S  
#EASTON DOT N/A N/A N/A N/A N5 N/A  
#ELK HTS DOT N/A 52 52 100 SE3 N/A  
#GLENWOOD N/A 57 32 38 CALM 30.47F  
#NELSON 3SW N/A 48 37 65 CALM 30.66S  
#NILE N/A 53 32 45 NE1 29.75S  
#TEANAWAY 4NE N/A 55 33 43 SW3 N/A  
#TROUT LAKE 1NE N/A 56 34 43 CALM 30.45F  
#TROUT LAKE 1E N/A 55 31 40 CALM 30.44F  

 
 
WAZ521-152010-  
SIMCOE HIGHLANDS  
 
CITY SKY/WX TMP DP RH WIND PRES REMARKS
 
#BICKLETON HS N/A 58 25 28 E6 30.04R  
#SATUS PASS DOT N/A 58 16 19 N6 N/A  
#CENTERVILLE 1SWN/A 56 29 35 CALM 30.41F  
#GOLDENDALE 4W N/A 59 13 16 CALM 30.44F  
#GOODNOE HILLS N/A 60 31 33 SE3 30.35S  
#LYLE 6NE N/A 54 31 41 N1 30.44F  
#PITT 4SE N/A 56 23 28 E2 30.47S  

 
 
WAZ026-152010-  
KITTITAS VALLEY  
 
CITY SKY/WX TMP DP RH WIND PRES REMARKS
 
ELLENSBURG AP SUNNY 54 32 43 CALM 30.44F  
#ELLENSBURG CWU N/A 52 33 48 CALM 30.41F  
#ELLENSBURG 3NE N/A 49 35 58 CALM 28.50F  
#ELLENSBURG 1E N/A 51 34 52 CALM 30.55S  
#KITTITAS 3S N/A 48 38 68 CALM 30.47F  
#MANASTASH RDG N/A 52 52 100 N1 N/A  
#ROCKY CYN DOT N/A 52 31 44 E5 N/A  
#RYEGRASS DOT N/A 53 28 38 CALM N/A  
#THORP 6N N/A 53 32 45 CALM 30.48F  

 
 
WAZ027-152010-  
YAKIMA VALLEY  
 
CITY SKY/WX TMP DP RH WIND PRES REMARKS
 
SUNNYSIDE AP SUNNY 55 33 43 CALM 30.46F  
YAKIMA AIRPORT SUNNY 55 28 35 CALM 30.45F  
#GRANDVIEW N/A 55 33 43 CALM 30.48F  
#MOXEE 2E N/A 31 N/A N/A CALM 30.42S  
#NACHES 2SW N/A 56 33 42 CALM 30.45R  
#OUTLOOK DOT N/A 55 31 40 CALM 30.43S  
#PARKER DOT N/A 55 28 35 E1 30.44S  
#TERRACE HTS N/A 58 35 42 CALM 30.43F  
#TOPPENISH N/A 54 35 48 CALM 30.39F  
#I82 S UMTANUM RN/A 54 28 36 SW5 N/A  
#UNION GAP DOT N/A 54 30 40 CALM 30.48F  
#W YAKIMA N/A 54 32 43 CALM 30.45F  
#ZILLAH DOT N/A 55 31 40 S1 N/A  

 
 
WAZ028-152010-  
LOWER COLUMBIA BASIN...WASHINGTON  
 
CITY SKY/WX TMP DP RH WIND PRES REMARKS
 
HANFORD MOSUNNY 53 32 45 N3 30.45S  
PASCO SUNNY 56 35 45 N5 30.47F  
PROSSER AWOS N/A 57 32 38 CALM 30.48F  
RICHLAND AWOS SUNNY 57 36 45 CALM 30.47F  
#BASIN CITY 5SW N/A 54 38 55 CALM 30.46F  
#BENTON CITY N/A 56 37 49 CALM 30.38F  
#CONNELL 5N N/A 58 33 39 CALM 30.48S  
#CONNELL 5NW N/A 55 34 45 CALM 30.42F  
#ELTOPIA 6NW N/A 54 39 57 CALM 29.41F  
#KAHLOTUS N/A 53 31 43 CALM 30.48S  
#KENNEWICK 3S N/A 54 38 55 CALM 30.47F  
#PROSSER DOT N/A 57 31 37 CALM 30.46F  
#SAGEMOOR 2W N/A 53 37 54 SW1 30.35S  
#TOUCHET 2S N/A 54 40 59 CALM 30.45F  

 
 
WAZ029-152010-  
FOOTHILLS OF THE BLUES...WASHINGTON  
 
CITY SKY/WX TMP DP RH WIND PRES REMARKS
 
WALLA WALLA AP SUNNY 57 29 34 VRB3 30.44F  
#CLYDE 6NW N/A 57 32 38 W1 30.46F  
#DELANEY DOT N/A 59 24 26 NE1 30.46F  
#LOWDEN 2SE N/A 54 39 57 W1 30.42F  
#PLEASANT VIEW 1N/A 55 30 38 NW1 30.49F  
#PRESCOTT N/A 63 33 32 CALM 30.47S  
#WHITMAN COLLEGEN/A 56 31 38 SW2 30.50F  
#WAITSBURG 6SSE N/A 59 26 28 W3 30.28S  
#WALLA WALLA 5E N/A 60 32 35 NW1 N/A  
#WHITMAN MISSIONN/A 52 38 59 CALM 30.47F  

 
 
WAZ030-152010-  
BLUE MOUNTAINS...WASHINGTON  
 
CITY SKY/WX TMP DP RH WIND PRES REMARKS
 
#DIXIE 5SE N/A 52 27 38 NW5 30.36S  

 
 
ORZ009-041-WAZ024-152010-  
COLUMBIA RIVER GORGE  
 
CITY SKY/WX TMP DP RH WIND PRES REMARKS
 
THE DALLES AP SUNNY 53 33 46 CALM 30.44F  
#CELILO DOT N/A 49 34 56 CALM N/A  
#LYLE N/A 53 37 54 S7 30.44F  
#MARYHILL N/A 55 32 41 N3 N/A  
#MURDOCK N/A 54 37 52 E2 30.40F  
#RUFUS DOT N/A 55 35 47 NE3 N/A  
#SMITHVILLE N/A 56 38 51 N3 30.43F  
 

 
 
ORZ510-152010-  
NORTH CENTRAL OREGON  
 
CITY SKY/WX TMP DP RH WIND PRES REMARKS
 
#ANTELOPE N/A 53 27 36 CALM 30.37S  
#COW CYN RST AREN/A 54 17 23 CALM N/A  
#DUFUR N/A 60 21 22 S5 30.40F  
#DUFUR 9E N/A 56 22 26 S5 30.48F  
#GRASS VALLEY 1SN/A 57 25 29 CALM 30.42F  
#KENT DOT N/A 58 18 21 SE3 N/A  
#SHANIKO 5WSW N/A 54 15 21 S2 N/A  
#WAPANITIA AIRPON/A 55 23 29 SE2 30.47F  
#WASCO DOT N/A 60 25 26 NE6 N/A  
#WASCO 5NE N/A 57 35 43 NE1 30.45S  

 
 
ORZ511-152010-  
CENTRAL OREGON  
 
CITY SKY/WX TMP DP RH WIND PRES REMARKS
 
BEND AIRPORT SUNNY 57 7 13 CALM 30.40F  
MADRAS AIRPORT SUNNY 54 18 24 CALM 30.44F  
PRINEVILLE AP SUNNY 59 10 14 VRB7 30.41F  
REDMOND AIRPORT SUNNY 60 11 14 CALM 30.41F  
#ASHWOOD SCHOOL N/A 55 25 31 N1 30.35F  
#BEND 1SW N/A 60 14 16 CALM N/A  
#BEND-AWBREY N/A 56 20 24 CALM 30.43F  
#BEND-KIM LN N/A 52 23 32 E3 30.42F  
#CULVER N/A 53 20 27 CALM 30.15F  
#CULVER 8W N/A 56 9 15 E2 30.37S  
#LAKE BILLY CHINN/A 60 N/A N/A SW1 30.43F  
#POWELL BUTTE N/A 57 18 21 CALM 30.32S  
#PRINEVILLE N/A 59 22 24 CALM 30.53F  
#WARM SPRINGS N/A 53 27 36 CALM 30.30F  
 

 
 
 
ORZ509-152010-  
EAST SLOPES OF OREGON CASCADES  
 
CITY SKY/WX TMP DP RH WIND PRES REMARKS
 
SISTERS AWOS N/A 52 16 24 CALM 30.35F  
#BLUE BOX PASS N/A 54 N/A N/A S2 N/A  
#CAMP SHERMAN N/A 59 19 21 CALM 30.50F  
#LA PINE 4NW N/A 51 16 24 CALM 30.55F  
#LAVA BUTTE DOT N/A 53 14 21 NW1 N/A  
#SISTERS ODOT N/A 52 11 19 CALM N/A  
#SISTERS 3N N/A 53 20 27 E3 30.38F  
#SUNRIVER N/A 55 5 13 S2 30.50F  
#TUMALO 3W N/A 54 16 22 E1 30.29F  
#WANOGA BUTTE D N/A 53 -16 5 W6 N/A  
 

 
 
ORZ044-152010-  
LOWER COLUMBIA BASIN...OREGON  
 
CITY SKY/WX TMP DP RH WIND PRES REMARKS
 
HERMISTON SUNNY 55 33 43 W5 30.46S  
#BOARDMAN SCHOOLN/A 50 37 61 N2 30.45F  
#BOARDMAN 8SW N/A 54 37 52 N1 30.47F  
#ECHO 8SW N/A 56 35 45 CALM 30.45F  
#I-84 EX 198 DOTN/A 56 32 40 E2 N/A  
#IONE SCHOOL N/A 57 29 34 CALM 30.47F  
#UMATILLA N/A 53 36 52 CALM 30.40F  

 
 
ORZ507-152010-  
NORTHERN FOOTHILLS OF THE BLUES  
 
CITY SKY/WX TMP DP RH WIND PRES REMARKS
 
PENDLETON AIRPT SUNNY 57 25 29 CALM 30.43F  
#ADAMS 3WNW N/A 57 30 35 NW1 30.45F  
#ATHENA N/A 57 28 33 CALM 30.49F  
#CAYUSE N/A 57 30 35 W1 30.44F  
#HOLDMAN 6E N/A 57 31 37 CALM 30.26F  
#M-FREEWATER 5SEN/A 58 33 39 CALM 30.41S  
#PENDLETON DNTN N/A 59 35 40 SW2 30.43S  
#PDT AQUATIC CTRN/A 55 35 47 CALM 30.36S  
#PDT SUNRIDGE N/A 56 31 38 W1 30.45F  
#PENDLETON 6SE N/A 59 29 32 N1 30.41F  
#PENDLETON 7NW N/A 61 37 41 CALM 32.47S  
#TUTUILLA N/A 54 28 36 CALM 30.50S  
#UMAPINE 2E N/A 55 39 55 CALM 30.42F  
 

 
 
ORZ508-152010-  
SOUTHERN FOOTHILLS OF THE BLUES  
 
CITY SKY/WX TMP DP RH WIND PRES REMARKS
 
#AJAX N/A 55 22 27 CALM 30.55S  
#CONDON 5W N/A 57 25 29 CALM 30.39F  
#HEPPNER EOC N/A 57 27 31 W5 30.38F  
#HEPPNER 4NE N/A 56 26 31 N3 30.45S  
#LEXINGTON 2SE N/A 59 28 30 NW6 30.41S  
#OLEX 4N N/A 54 31 41 E1 30.42F  
#RUGGS 5NE N/A 60 25 26 N1 30.59S  
#RUGGS 2SW N/A 57 24 28 CALM 30.46F  
 

 
 
ORZ502-503-152010-  
BLUE MOUNTAINS  
 
CITY SKY/WX TMP DP RH WIND PRES REMARKS
 
MEACHAM SUNNY 55 16 21 CALM 30.43S  
#BATTLE MTN DOT N/A 50 21 32 SE3 N/A  
#GRANITE N/A 50 27 41 S1 30.03S  
#HARDMAN 10S N/A 53 21 28 CALM 30.59F  
#HEPPNER 15SE N/A 55 27 34 CALM 25.90S  
#LADD CYN SMT N/A 51 21 30 E6 N/A  
#LADD CREEK ODOTN/A 41 25 53 NE6 N/A  
#N POWDER DOT N/A 49 23 36 S1 N/A  
#SUMMERVILLE 5NWN/A 48 29 47 E3 27.07F  
#TOLLGATE N/A 50 24 36 SE1 30.41S  
#TROY SCHOOL N/A 53 31 43 CALM 30.34F  
#UKIAH N/A 48 29 47 CALM 30.47F  
#WESTON 4E N/A 54 29 38 W1 30.43S  

 
 
ORZ505-152010-  
JOHN DAY BASIN  
 
CITY SKY/WX TMP DP RH WIND PRES REMARKS
 
JOHN DAY SUNNY 53 23 31 NW5 30.44F  
#MITCHELL 8NW N/A 50 23 34 N1 30.47S  
#MONUMENT HS N/A 52 22 31 CALM 30.40F  

 
 
ORZ506-152010-  
OCHOCO AND JOHN DAY HIGHLANDS  
 
CITY SKY/WX TMP DP RH WIND PRES REMARKS
 
#HORSE RIDGE DO N/A 57 -7 7 E9 N/A  
#IZEE 6NW N/A 55 20 25 E1 N/A  
#PAULINA ODOT N/A 50 13 22 E2 N/A  
#PRAIRIE CITY N/A 52 20 28 CALM 30.59F  
#SENECA 9NW N/A 46 20 35 CALM 30.56F  

 
 
ORZ049-152010-  
GRANDE RONDE VALLEY  
 
CITY SKY/WX TMP DP RH WIND PRES REMARKS
 
LA GRANDE SUNNY 44 24 45 CALM 30.48F  
#COVE SCHOOL N/A 46 28 49 CALM 30.44F  
#COVE 6NW N/A 46 30 53 CALM 30.55F  
#ELGIN 3N N/A 52 24 33 S1 30.39F  
#ELGIN 1E N/A 49 27 42 CALM N/A  
#IMBLER SCHOOL N/A 45 28 51 CALM 30.40F  
#ISLAND CITY 4N N/A 67 37 33 CALM 30.30F  
#LADD CYN DOT N/A 46 28 49 NW1 N/A  
#UNION 1S N/A 46 29 51 CALM 30.54F  

 
 
ORZ050-152010-  
WALLOWA COUNTY  
 
CITY SKY/WX TMP DP RH WIND PRES REMARKS
 
#ENTERPRISE HS N/A 53 22 29 CALM 30.41F  
#IMNAHA SCHOOL N/A 54 25 32 N1 30.42F  
#JOSEPH N/A 53 13 20 NW1 30.56F  
#JOSEPH 3N N/A 51 19 28 CALM 30.41F  
#JOSEPH 3W N/A 50 27 41 E2 30.22F  
#LOSTINE N/A 46 26 45 CALM 30.34F  
#LOSTINE 3SE N/A 47 26 44 E5 30.51F  
#MT HOWARD 8000 N/A -89 N/A N/A W1 30.45S  
#PROMISE 1S N/A 49 27 42 CALM 30.58F  
#WALLOWA LAKE N/A 52 21 29 N1 30.45F  
#WALLOWA SCHOOL N/A 46 24 42 CALM 30.38F  
 

 
 
CLICK HERE TO GO TO PREVIOUS BULLETINS.

The Nexlab OR Page
The Nexlab WA Page Main Text Page